Tracking 32142 objects as of 12-Nov-2025
HD Live streaming from Space Station
objects crossing your sky now

IRIDIUM 33 DEB

Track IRIDIUM 33 DEB now!
10-day predictions


NORAD ID: 36011
Int'l Code: 1997-051US
Perigee: 749.4 km
Apogee: 774.2 km
Inclination: 86.3 °
Period: 99.9 minutes
Semi major axis: 7132 km
RCS: 0.0036 m2 (small)
Launch date: September 14, 1997
Source: United States (US)
Launch site: TYURATAM MISSILE AND SPACE COMPLEX (TTMTR)

Note: This is SATELLITE DEBRIS
Your satellite tracking list
Your tracking list is empty




NASA's NSSDC Master Catalog

Two Line Element Set (TLE):
1 36011U 97051US  25314.57928556  .00002721  00000-0  83666-3 0  9999
2 36011  86.3425  49.2315 0017368 332.3086  84.5394 14.41168195640772
Source of the keplerian elements: AFSPC